Tracking 27420 objects as of 28-May-2023
HD Live streaming from Space Station
objects crossing your sky now

ONEWEB-0573

Track ONEWEB-0573 now!
10-day predictions
ONEWEB-0573 is classified as:


NORAD ID: 55152
Int'l Code: 2023-004N
Perigee: 678.2 km
Apogee: 684.5 km
Inclination: 86.6 °
Period: 98.2 minutes
Semi major axis: 7052 km
RCS: Unknown
Launch date: January 10, 2023
Source: United Kingdom (UK)
Launch site: AIR FORCE WESTERN TEST RANGE (AFWTR)
Your satellite tracking list
Your tracking list is empty




NASA's NSSDC Master Catalog

Two Line Element Set (TLE):
1 55152U 23004N   23147.21428422  .00001071  00000-0  19184-3 0  9994
2 55152  86.6297 228.0576 0004462 104.8992 255.2716 14.65903624 20322
Source of the keplerian elements: AFSPC